This is the latest recevied weather packets stored in our database for station/object KB7STN. If no packets are shown the sender has not sent any weather packets the latest 10 day(s).
| Time | Temp. | Humidity | Pressure | Rain* | Wind** | Luminosity | Snow |
|---|---|---|---|---|---|---|---|
| 1777488451 | 14.44° C | 32% | 1015.1 hPa | 0 mm | - | - | - |
| 1777488151 | 13.89° C | 34% | 1015 hPa | 0 mm | - | - | - |
| 1777487851 | 13.89° C | 32% | 1015.2 hPa | 0 mm | - | - | - |
| 1777487551 | 13.33° C | 34% | 1015.2 hPa | 0 mm | - | - | - |
| 1777487251 | 13.33° C | 33% | 1015.2 hPa | 0 mm | - | - | - |
| 1777486951 | 13.33° C | 33% | 1015.3 hPa | 0 mm | - | - | - |
| 1777486651 | 13.89° C | 31% | 1015.3 hPa | 0 mm | - | - | - |
| 1777486351 | 14.44° C | 31% | 1015.3 hPa | 0 mm | - | - | - |
| 1777486051 | 14.44° C | 32% | 1015.2 hPa | 0 mm | - | - | - |
| 1777485751 | 14.44° C | 32% | 1015.4 hPa | 0 mm | - | - | - |
| 1777485451 | 14.44° C | 31% | 1015.4 hPa | 0 mm | - | - | - |
| 1777485151 | 14.44° C | 30% | 1015.4 hPa | 0 mm | - | - | - |
| 1777484851 | 14.44° C | 29% | 1015.6 hPa | 0 mm | - | - | - |
| 1777484551 | 13.89° C | 32% | 1015.5 hPa | 0 mm | - | - | - |
| 1777484251 | 13.89° C | 29% | 1015.5 hPa | 0 mm | - | - | - |
| 1777483951 | 13.89° C | 34% | 1015.5 hPa | 0 mm | - | - | - |
| 1777483651 | 13.33° C | 33% | 1015.6 hPa | 0 mm | - | - | - |
| 1777483351 | 13.33° C | 33% | 1015.7 hPa | 0 mm | - | - | - |
| 1777483051 | 13.33° C | 33% | 1015.7 hPa | 0 mm | - | - | - |
| 1777482751 | 13.89° C | 33% | 1015.8 hPa | 0 mm | - | - | - |
| 1777482451 | 13.89° C | 31% | 1015.8 hPa | 0 mm | - | - | - |
| 1777482151 | 13.89° C | 34% | 1015.8 hPa | 0 mm | - | - | - |
| 1777481851 | 13.89° C | 34% | 1015.8 hPa | 0 mm | - | - | - |
| 1777481551 | 13.33° C | 40% | 1015.8 hPa | 0 mm | - | - | - |
| 1777481251 | 13.33° C | 38% | 1015.8 hPa | 0 mm | - | - | - |
* Rain latest hour (hover to see other rain measurements)
** Current wind speed in m/s (hover to see current wind gust speed)